TimeEDT,TemperatureF,Dew PointF,Humidity,Sea Level PressureIn,VisibilityMPH,Wind Direction,Wind SpeedMPH,Gust SpeedMPH,PrecipitationIn,Events,Conditions,WindDirDegrees,DateUTC
12:53 AM,63.0,55.9,78,29.55,10.0,ESE,9.2,-,0.00,,Overcast,120,2013-04-19 04:53:00
1:53 AM,68.0,54.0,61,29.49,10.0,South,12.7,-,0.00,,Mostly Cloudy,170,2013-04-19 05:53:00
2:53 AM,71.1,53.1,53,29.44,10.0,South,23.0,29.9,N/A,,Mostly Cloudy,180,2013-04-19 06:53:00
3:53 AM,68.0,55.9,65,29.42,9.0,SSW,17.3,32.2,0.01,Rain,Light Rain,200,2013-04-19 07:53:00
4:34 AM,64.4,57.2,77,29.44,5.0,SSW,15.0,24.2,0.06,Rain,Light Rain,200,2013-04-19 08:34:00
4:53 AM,63.0,59.0,87,29.42,3.0,SW,12.7,-,0.13,Rain,Heavy Rain,220,2013-04-19 08:53:00
4:58 AM,62.6,59.0,88,29.45,2.5,WSW,20.7,29.9,0.04,Rain,Heavy Rain,250,2013-04-19 08:58:00
5:09 AM,53.6,50.0,88,29.47,2.5,West,29.9,39.1,0.13,Rain,Heavy Rain,270,2013-04-19 09:09:00
5:17 AM,51.8,48.2,88,29.46,2.0,West,19.6,39.1,0.19,Rain,Heavy Rain,270,2013-04-19 09:17:00
5:27 AM,51.8,48.2,88,29.48,4.0,West,17.3,25.3,0.23,Rain,Rain,270,2013-04-19 09:27:00
5:32 AM,51.8,46.4,82,29.48,4.0,West,17.3,-,0.26,Rain,Rain,270,2013-04-19 09:32:00
5:53 AM,50.0,46.0,86,29.48,5.0,WSW,23.0,27.6,0.31,Rain,Rain,250,2013-04-19 09:53:00
6:39 AM,46.4,42.8,87,29.49,10.0,West,20.7,28.8,0.04,,Overcast,280,2013-04-19 10:39:00
6:53 AM,46.0,42.1,86,29.51,10.0,West,25.3,32.2,0.04,,Overcast,270,2013-04-19 10:53:00
7:22 AM,44.6,39.2,81,29.54,4.0,West,23.0,29.9,0.01,Rain,Light Rain,260,2013-04-19 11:22:00
7:40 AM,42.8,39.2,87,29.53,3.0,West,20.7,-,0.02,Rain,Light Rain,260,2013-04-19 11:40:00
7:53 AM,43.0,39.0,86,29.55,6.0,West,18.4,27.6,0.02,Rain,Light Rain,260,2013-04-19 11:53:00
8:10 AM,42.8,39.2,87,29.56,5.0,WSW,19.6,-,0.00,Rain,Light Rain,250,2013-04-19 12:10:00
8:19 AM,42.8,39.2,87,29.57,2.5,West,25.3,33.4,0.00,Rain,Light Rain,270,2013-04-19 12:19:00
8:30 AM,42.8,37.4,81,29.58,2.5,West,23.0,31.1,0.00,Rain,Light Rain,270,2013-04-19 12:30:00
8:40 AM,42.8,37.4,81,29.58,6.0,West,20.7,-,0.01,Rain,Light Rain,260,2013-04-19 12:40:00
8:53 AM,42.1,37.0,82,29.58,10.0,West,23.0,35.7,0.01,,Overcast,270,2013-04-19 12:53:00
9:23 AM,39.2,33.8,81,29.60,10.0,West,23.0,31.1,N/A,,Overcast,270,2013-04-19 13:23:00
9:53 AM,41.0,34.0,76,29.60,10.0,WSW,21.9,28.8,N/A,,Overcast,250,2013-04-19 13:53:00
10:53 AM,39.9,32.0,73,29.65,10.0,WSW,24.2,34.5,N/A,,Overcast,250,2013-04-19 14:53:00
11:53 AM,39.9,30.9,70,29.67,10.0,WSW,31.1,42.6,N/A,,Overcast,240,2013-04-19 15:53:00
12:17 PM,41.0,30.2,65,29.67,10.0,WSW,29.9,36.8,N/A,,Overcast,250,2013-04-19 16:17:00
12:34 PM,39.2,30.2,70,29.68,10.0,WSW,24.2,38.0,N/A,,Overcast,250,2013-04-19 16:34:00
12:53 PM,41.0,30.9,67,29.69,10.0,WSW,23.0,39.1,N/A,,Overcast,240,2013-04-19 16:53:00
1:53 PM,39.9,30.0,68,29.68,10.0,WSW,25.3,36.8,N/A,,Overcast,250,2013-04-19 17:53:00
2:53 PM,41.0,30.9,67,29.72,10.0,WSW,26.5,38.0,N/A,,Overcast,240,2013-04-19 18:53:00
3:53 PM,41.0,30.9,67,29.73,10.0,WSW,25.3,34.5,N/A,,Overcast,250,2013-04-19 19:53:00
4:00 PM,41.0,30.2,65,29.73,10.0,WSW,20.7,31.1,N/A,,Overcast,250,2013-04-19 20:00:00
4:42 PM,41.0,30.2,65,29.74,10.0,WSW,25.3,40.3,N/A,,Overcast,250,2013-04-19 20:42:00
4:53 PM,42.1,30.0,62,29.75,10.0,SW,27.6,35.7,N/A,,Overcast,230,2013-04-19 20:53:00
5:53 PM,41.0,28.9,62,29.80,10.0,WSW,28.8,42.6,N/A,,Overcast,250,2013-04-19 21:53:00
6:53 PM,39.9,28.9,65,29.83,10.0,WSW,19.6,29.9,0.00,,Overcast,250,2013-04-19 22:53:00
7:53 PM,39.0,30.0,70,29.85,10.0,SW,16.1,25.3,0.00,Rain,Light Rain,230,2013-04-19 23:53:00
8:30 PM,39.2,30.2,70,29.84,10.0,WSW,17.3,26.5,0.00,Rain,Light Rain,240,2013-04-20 00:30:00
8:46 PM,37.4,30.2,75,29.84,10.0,SW,13.8,-,0.00,,Overcast,220,2013-04-20 00:46:00
8:53 PM,39.0,30.0,70,29.86,10.0,SW,15.0,25.3,0.00,Rain,Light Rain,230,2013-04-20 00:53:00
9:14 PM,37.4,30.2,75,29.85,10.0,SW,17.3,27.6,0.00,Rain,Light Rain,230,2013-04-20 01:14:00
9:36 PM,37.4,30.2,75,29.85,9.0,SW,15.0,24.2,0.00,Rain,Light Rain,230,2013-04-20 01:36:00
9:53 PM,37.0,30.9,79,29.88,5.0,SW,17.3,-,0.01,Snow,Light Snow,230,2013-04-20 01:53:00
10:25 PM,37.4,32.0,81,29.87,10.0,WSW,15.0,26.5,0.02,,Overcast,250,2013-04-20 02:25:00
10:53 PM,37.9,30.9,76,29.89,10.0,WSW,17.3,-,0.02,,Overcast,250,2013-04-20 02:53:00
11:17 PM,35.6,32.0,87,29.88,8.0,WSW,16.1,26.5,0.00,Rain,Light Rain,240,2013-04-20 03:17:00
11:27 PM,35.6,32.0,87,29.88,10.0,SW,17.3,-,0.00,,Overcast,230,2013-04-20 03:27:00
11:53 PM,36.0,32.0,86,29.91,7.0,WSW,18.4,-,0.00,Snow,Light Snow,240,2013-04-20 03:53:00